Time,TemperatureF,DewpointF,PressureIn,WindDirection,WindDirectionDegrees,WindSpeedMPH,WindSpeedGustMPH,Humidity,HourlyPrecipIn,Conditions,Clouds,dailyrainin,SoftwareType,DateUTC
2013-01-12 00:00:00,39.4,39.2,30.16,South,180,0.0,2.0,99,0.00,,,0.00,meteohub,2013-01-12 05:00:00,
2013-01-12 00:01:00,39.4,39.2,30.16,NE,45,1.0,2.0,99,0.00,,,0.00,meteohub,2013-01-12 05:01:00,
2013-01-12 00:03:00,39.4,39.2,30.16,NE,45,1.0,2.0,99,0.00,,,0.00,meteohub,2013-01-12 05:03:00,
2013-01-12 00:08:00,39.6,39.4,30.15,NW,315,2.0,2.0,99,0.00,,,0.00,meteohub,2013-01-12 05:08:00,
2013-01-12 00:13:00,39.6,39.4,30.15,SW,225,1.0,2.0,99,0.00,,,0.00,meteohub,2013-01-12 05:13:00,
2013-01-12 00:18:00,39.6,39.4,30.15,SE,135,2.0,2.0,99,0.00,,,0.00,meteohub,2013-01-12 05:18:00,
2013-01-12 00:23:00,39.7,39.6,30.16,North,0,2.0,2.0,99,0.00,,,0.00,meteohub,2013-01-12 05:23:00,
2013-01-12 00:28:00,39.9,39.7,30.15,North,0,4.0,4.0,99,0.00,,,0.00,meteohub,2013-01-12 05:28:00,
2013-01-12 00:33:00,40.5,40.3,30.15,South,180,2.0,2.0,99,0.00,,,0.00,meteohub,2013-01-12 05:33:00,
2013-01-12 00:38:00,41.0,40.8,30.15,SE,135,1.0,4.0,99,0.00,,,0.00,meteohub,2013-01-12 05:38:00,
2013-01-12 00:43:00,41.5,41.4,30.15,North,0,2.0,4.0,99,0.00,,,0.00,meteohub,2013-01-12 05:43:00,
2013-01-12 00:48:00,41.9,41.7,30.15,South,180,2.0,4.0,99,0.00,,,0.00,meteohub,2013-01-12 05:48:00,
2013-01-12 00:53:00,41.9,41.7,30.15,South,180,2.0,4.0,99,0.00,,,0.00,meteohub,2013-01-12 05:53:00,
2013-01-12 00:58:00,41.9,41.7,30.15,North,0,0.0,4.0,99,0.00,,,0.00,meteohub,2013-01-12 05:58:00,
2013-01-12 01:03:00,41.9,41.7,30.15,North,0,0.0,2.0,99,0.00,,,0.00,meteohub,2013-01-12 06:03:00,
2013-01-12 01:08:00,41.9,41.7,30.15,SE,135,1.0,2.0,99,0.00,,,0.00,meteohub,2013-01-12 06:08:00,
2013-01-12 01:13:00,41.7,41.5,30.15,South,180,2.0,2.0,99,0.00,,,0.00,meteohub,2013-01-12 06:13:00,
2013-01-12 01:18:00,41.5,41.4,30.16,South,180,2.0,2.0,99,0.00,,,0.00,meteohub,2013-01-12 06:18:00,
2013-01-12 01:23:00,41.5,41.4,30.16,SE,135,0.0,2.0,99,0.00,,,0.00,meteohub,2013-01-12 06:23:00,
2013-01-12 01:28:00,41.5,41.4,30.15,SW,225,3.0,3.0,99,0.00,,,0.00,meteohub,2013-01-12 06:28:00,
2013-01-12 01:34:00,41.4,41.2,30.15,South,180,0.0,3.0,99,0.00,,,0.00,meteohub,2013-01-12 06:34:00,
2013-01-12 01:39:00,41.4,41.2,30.16,East,90,0.0,3.0,99,0.00,,,0.00,meteohub,2013-01-12 06:39:00,
2013-01-12 01:44:00,41.4,41.2,30.16,SW,225,1.0,3.0,99,0.00,,,0.00,meteohub,2013-01-12 06:44:00,
2013-01-12 01:49:00,41.2,41.0,30.16,NE,45,1.0,2.0,99,0.00,,,0.00,meteohub,2013-01-12 06:49:00,
2013-01-12 01:54:00,41.2,41.0,30.16,North,0,2.0,2.0,99,0.00,,,0.00,meteohub,2013-01-12 06:54:00,
2013-01-12 01:59:00,41.2,41.0,30.16,South,180,2.0,2.0,99,0.00,,,0.00,meteohub,2013-01-12 06:59:00,
2013-01-12 02:04:00,41.0,40.8,30.16,SW,225,1.0,2.0,99,0.00,,,0.00,meteohub,2013-01-12 07:04:00,
2013-01-12 02:09:00,41.0,40.8,30.16,North,0,0.0,2.0,99,0.00,,,0.00,meteohub,2013-01-12 07:09:00,
2013-01-12 02:14:00,41.0,40.8,30.16,North,0,2.0,2.0,99,0.00,,,0.00,meteohub,2013-01-12 07:14:00,
2013-01-12 02:19:00,41.0,40.8,30.16,North,0,0.0,2.0,99,0.00,,,0.00,meteohub,2013-01-12 07:19:00,
2013-01-12 02:24:00,40.8,40.6,30.16,North,0,0.0,2.0,99,0.00,,,0.00,meteohub,2013-01-12 07:24:00,
2013-01-12 02:29:00,40.8,40.6,30.16,South,180,1.0,2.0,99,0.00,,,0.00,meteohub,2013-01-12 07:29:00,
2013-01-12 02:34:00,40.8,40.6,30.16,NW,315,2.0,2.0,99,0.00,,,0.00,meteohub,2013-01-12 07:34:00,
2013-01-12 02:39:00,40.8,40.6,30.16,NW,315,2.0,2.0,99,0.00,,,0.00,meteohub,2013-01-12 07:39:00,
2013-01-12 02:44:00,40.8,40.6,30.16,North,-999,-999.0,2.0,99,0.00,,,0.00,meteohub,2013-01-12 07:44:00,
2013-01-12 02:49:00,40.8,40.6,30.16,South,180,1.0,2.0,99,0.00,,,0.00,meteohub,2013-01-12 07:49:00,
2013-01-12 02:54:00,40.8,40.6,30.16,South,180,0.0,2.0,99,0.00,,,0.00,meteohub,2013-01-12 07:54:00,
2013-01-12 02:59:00,40.8,40.6,30.15,South,180,0.0,1.0,99,0.00,,,0.00,meteohub,2013-01-12 07:59:00,
2013-01-12 03:04:00,40.6,40.5,30.16,South,180,0.0,1.0,99,0.00,,,0.00,meteohub,2013-01-12 08:04:00,
2013-01-12 03:09:00,40.5,40.3,30.15,South,180,1.0,0.0,99,0.00,,,0.00,meteohub,2013-01-12 08:09:00,
2013-01-12 03:14:00,40.3,40.1,30.16,South,180,1.0,1.0,99,0.00,,,0.00,meteohub,2013-01-12 08:14:00,
2013-01-12 03:19:00,40.1,39.9,30.15,South,180,0.0,1.0,99,0.00,,,0.00,meteohub,2013-01-12 08:19:00,
2013-01-12 03:24:00,39.9,39.7,30.15,South,180,0.0,1.0,99,0.00,,,0.00,meteohub,2013-01-12 08:24:00,
2013-01-12 03:29:00,39.9,39.7,30.15,NW,315,0.0,1.0,99,0.00,,,0.00,meteohub,2013-01-12 08:29:00,
2013-01-12 03:34:00,39.9,39.7,30.14,NE,45,1.0,1.0,99,0.00,,,0.00,meteohub,2013-01-12 08:34:00,
2013-01-12 03:39:00,39.9,39.7,30.14,NE,45,1.0,2.0,99,0.00,,,0.00,meteohub,2013-01-12 08:39:00,
2013-01-12 03:44:00,39.9,39.7,30.14,NE,45,1.0,2.0,99,0.00,,,0.00,meteohub,2013-01-12 08:44:00,
2013-01-12 03:49:00,40.3,40.1,30.14,South,180,2.0,2.0,99,0.00,,,0.00,meteohub,2013-01-12 08:49:00,
2013-01-12 03:54:00,40.6,40.5,30.14,South,180,1.0,2.0,99,0.00,,,0.00,meteohub,2013-01-12 08:54:00,
2013-01-12 03:59:00,40.6,40.5,30.15,South,180,2.0,2.0,99,0.00,,,0.00,meteohub,2013-01-12 08:59:00,
2013-01-12 04:04:00,40.6,40.5,30.14,SW,225,1.0,2.0,99,0.00,,,0.00,meteohub,2013-01-12 09:04:00,
2013-01-12 04:09:00,41.0,40.8,30.15,SW,225,2.0,2.0,99,0.00,,,0.00,meteohub,2013-01-12 09:09:00,
2013-01-12 04:14:00,40.8,40.6,30.14,South,180,2.0,2.0,99,0.00,,,0.00,meteohub,2013-01-12 09:14:00,
2013-01-12 04:19:00,40.8,40.6,30.15,SW,225,1.0,2.0,99,0.00,,,0.00,meteohub,2013-01-12 09:19:00,
2013-01-12 04:25:00,40.8,40.6,30.14,East,90,0.0,2.0,99,0.00,,,0.00,meteohub,2013-01-12 09:25:00,
2013-01-12 04:30:00,40.8,40.6,30.14,East,90,0.0,2.0,99,0.00,,,0.00,meteohub,2013-01-12 09:30:00,
2013-01-12 04:35:00,40.8,40.6,30.14,South,180,2.0,2.0,99,0.00,,,0.00,meteohub,2013-01-12 09:35:00,
2013-01-12 04:40:00,41.0,40.8,30.14,NE,45,2.0,2.0,99,0.00,,,0.00,meteohub,2013-01-12 09:40:00,
2013-01-12 04:45:00,41.4,41.2,30.14,NE,45,0.0,2.0,99,0.00,,,0.00,meteohub,2013-01-12 09:45:00,
2013-01-12 04:50:00,41.4,41.2,30.14,South,180,1.0,2.0,99,0.00,,,0.00,meteohub,2013-01-12 09:50:00,
2013-01-12 04:55:00,41.5,41.4,30.14,SW,225,2.0,2.0,99,0.00,,,0.00,meteohub,2013-01-12 09:55:00,
2013-01-12 05:00:00,41.5,41.4,30.14,SW,225,0.0,2.0,99,0.00,,,0.00,meteohub,2013-01-12 10:00:00,
2013-01-12 05:05:00,41.5,41.4,30.14,SW,225,0.0,2.0,99,0.00,,,0.00,meteohub,2013-01-12 10:05:00,
2013-01-12 05:10:00,41.7,41.5,30.14,NE,45,1.0,2.0,99,0.00,,,0.00,meteohub,2013-01-12 10:10:00,
2013-01-12 05:15:00,41.9,41.7,30.15,SE,135,1.0,1.0,99,0.00,,,0.00,meteohub,2013-01-12 10:15:00,
2013-01-12 05:20:00,42.1,41.9,30.15,SE,135,0.0,1.0,99,0.00,,,0.00,meteohub,2013-01-12 10:20:00,
2013-01-12 05:25:00,42.3,42.1,30.15,NE,45,2.0,2.0,99,0.00,,,0.00,meteohub,2013-01-12 10:25:00,
2013-01-12 05:30:00,42.4,42.3,30.15,NW,315,1.0,2.0,99,0.00,,,0.00,meteohub,2013-01-12 10:30:00,
2013-01-12 05:35:00,42.6,42.4,30.15,NW,315,0.0,2.0,99,0.00,,,0.00,meteohub,2013-01-12 10:35:00,
2013-01-12 05:40:00,42.6,42.4,30.15,South,180,0.0,2.0,99,0.00,,,0.00,meteohub,2013-01-12 10:40:00,
2013-01-12 05:45:00,43.0,42.4,30.14,SE,135,1.0,2.0,98,0.00,,,0.00,meteohub,2013-01-12 10:45:00,
2013-01-12 05:50:00,43.2,42.6,30.15,North,0,1.0,2.0,98,0.00,,,0.00,meteohub,2013-01-12 10:50:00,
2013-01-12 05:55:00,43.3,42.8,30.15,SE,135,1.0,2.0,98,0.00,,,0.00,meteohub,2013-01-12 10:55:00,
2013-01-12 06:00:00,43.7,43.2,30.15,NE,45,1.0,2.0,98,0.00,,,0.00,meteohub,2013-01-12 11:00:00,
2013-01-12 06:05:00,43.9,43.3,30.15,SW,225,1.0,1.0,98,0.00,,,0.00,meteohub,2013-01-12 11:05:00,
2013-01-12 06:10:00,44.1,43.5,30.15,South,180,2.0,3.0,98,0.00,,,0.00,meteohub,2013-01-12 11:10:00,
2013-01-12 06:15:00,43.9,43.3,30.15,South,180,2.0,3.0,98,0.00,,,0.00,meteohub,2013-01-12 11:15:00,
2013-01-12 06:20:00,43.9,43.3,30.15,North,0,1.0,3.0,98,0.00,,,0.00,meteohub,2013-01-12 11:20:00,
2013-01-12 06:25:00,43.9,43.3,30.15,South,180,3.0,3.0,98,0.00,,,0.00,meteohub,2013-01-12 11:25:00,
2013-01-12 06:30:00,43.9,43.3,30.15,East,90,1.0,3.0,98,0.00,,,0.00,meteohub,2013-01-12 11:30:00,
2013-01-12 06:35:00,44.1,43.5,30.15,SW,225,2.0,3.0,98,0.00,,,0.00,meteohub,2013-01-12 11:35:00,
2013-01-12 06:40:00,44.1,43.5,30.16,South,180,1.0,3.0,98,0.00,,,0.00,meteohub,2013-01-12 11:40:00,
2013-01-12 06:45:00,43.9,43.3,30.15,South,180,2.0,3.0,98,0.00,,,0.00,meteohub,2013-01-12 11:45:00,
2013-01-12 06:50:00,43.7,43.2,30.16,SW,225,2.0,3.0,98,0.00,,,0.00,meteohub,2013-01-12 11:50:00,
2013-01-12 06:55:00,43.7,43.2,30.16,SW,225,1.0,3.0,98,0.00,,,0.00,meteohub,2013-01-12 11:55:00,
2013-01-12 07:00:00,43.7,43.2,30.16,North,0,2.0,3.0,98,0.00,,,0.00,meteohub,2013-01-12 12:00:00,
2013-01-12 07:05:00,43.7,43.2,30.16,North,0,2.0,3.0,98,0.00,,,0.00,meteohub,2013-01-12 12:05:00,
2013-01-12 07:10:00,43.9,43.3,30.16,SW,225,2.0,2.0,98,0.00,,,0.00,meteohub,2013-01-12 12:10:00,
2013-01-12 07:15:00,43.9,43.3,30.16,SW,225,2.0,2.0,98,0.00,,,0.00,meteohub,2013-01-12 12:15:00,
2013-01-12 07:21:00,43.9,43.3,30.16,NE,45,2.0,2.0,98,0.00,,,0.00,meteohub,2013-01-12 12:21:00,
2013-01-12 07:26:00,43.9,43.3,30.16,South,180,3.0,3.0,98,0.00,,,0.00,meteohub,2013-01-12 12:26:00,
2013-01-12 07:31:00,43.9,43.3,30.16,South,180,2.0,4.0,98,0.00,,,0.00,meteohub,2013-01-12 12:31:00,
2013-01-12 07:36:00,44.1,43.5,30.16,North,0,2.0,4.0,98,0.00,,,0.00,meteohub,2013-01-12 12:36:00,
2013-01-12 07:41:00,44.2,43.7,30.16,North,0,2.0,4.0,98,0.00,,,0.00,meteohub,2013-01-12 12:41:00,
2013-01-12 07:46:00,44.1,43.5,30.16,West,270,2.0,3.0,98,0.00,,,0.00,meteohub,2013-01-12 12:46:00,
2013-01-12 07:51:00,43.9,43.3,30.17,SW,225,2.0,2.0,98,0.00,,,0.00,meteohub,2013-01-12 12:51:00,
2013-01-12 07:56:00,43.9,43.3,30.16,West,270,3.0,3.0,98,0.00,,,0.00,meteohub,2013-01-12 12:56:00,
2013-01-12 08:01:00,44.1,43.5,30.17,SW,225,2.0,3.0,98,0.00,,,0.00,meteohub,2013-01-12 13:01:00,
2013-01-12 08:06:00,44.2,43.7,30.16,NE,45,3.0,3.0,98,0.00,,,0.00,meteohub,2013-01-12 13:06:00,
2013-01-12 08:11:00,45.3,44.6,30.17,North,0,2.0,4.0,97,0.00,,,0.00,meteohub,2013-01-12 13:11:00,
2013-01-12 08:16:00,45.9,45.1,30.17,East,90,2.0,4.0,97,0.00,,,0.00,meteohub,2013-01-12 13:16:00,
2013-01-12 08:21:00,46.2,45.5,30.17,North,0,3.0,4.0,97,0.00,,,0.00,meteohub,2013-01-12 13:21:00,
2013-01-12 08:26:00,46.4,46.2,30.17,South,180,2.0,4.0,99,0.00,,,0.00,meteohub,2013-01-12 13:26:00,
2013-01-12 08:31:00,46.6,46.4,30.17,NW,315,2.0,4.0,99,0.00,,,0.00,meteohub,2013-01-12 13:31:00,
2013-01-12 08:36:00,46.8,46.6,30.18,East,90,3.0,5.0,99,0.00,,,0.00,meteohub,2013-01-12 13:36:00,
2013-01-12 08:41:00,46.8,46.6,30.18,North,0,4.0,5.0,99,0.00,,,0.00,meteohub,2013-01-12 13:41:00,
2013-01-12 08:46:00,46.8,46.6,30.18,South,180,4.0,4.0,99,0.00,,,0.00,meteohub,2013-01-12 13:46:00,
2013-01-12 08:51:00,46.9,46.8,30.18,South,180,3.0,4.0,99,0.00,,,0.00,meteohub,2013-01-12 13:51:00,
2013-01-12 08:56:00,47.1,46.9,30.18,NE,45,2.0,4.0,99,0.00,,,0.00,meteohub,2013-01-12 13:56:00,
2013-01-12 09:01:00,47.3,47.1,30.18,NE,45,2.0,4.0,99,0.00,,,0.00,meteohub,2013-01-12 14:01:00,
2013-01-12 09:06:00,47.3,47.1,30.18,NE,45,2.0,3.0,99,0.00,,,0.00,meteohub,2013-01-12 14:06:00,
2013-01-12 09:11:00,48.2,48.0,30.18,South,180,0.0,2.0,99,0.00,,,0.00,meteohub,2013-01-12 14:11:00,
2013-01-12 09:16:00,48.7,48.6,30.18,North,0,3.0,3.0,99,0.00,,,0.00,meteohub,2013-01-12 14:16:00,
2013-01-12 09:21:00,49.5,49.3,30.17,East,90,2.0,3.0,99,0.00,,,0.00,meteohub,2013-01-12 14:21:00,
2013-01-12 09:26:00,51.4,51.1,30.17,NE,45,4.0,4.0,99,0.00,,,0.00,meteohub,2013-01-12 14:26:00,
2013-01-12 09:31:00,53.2,52.7,30.18,NE,45,0.0,4.0,98,0.00,,,0.00,meteohub,2013-01-12 14:31:00,
2013-01-12 09:36:00,55.0,54.1,30.18,NE,45,3.0,4.0,97,0.00,,,0.00,meteohub,2013-01-12 14:36:00,
2013-01-12 09:41:00,56.3,55.2,30.18,NE,45,2.0,4.0,96,0.00,,,0.00,meteohub,2013-01-12 14:41:00,
2013-01-12 09:46:00,57.4,54.5,30.19,SE,135,2.0,4.0,90,0.00,,,0.00,meteohub,2013-01-12 14:46:00,
2013-01-12 09:51:00,58.5,54.9,30.19,NE,45,2.0,4.0,88,0.00,,,0.00,meteohub,2013-01-12 14:51:00,
2013-01-12 09:56:00,59.5,55.0,30.19,North,0,2.0,4.0,85,0.00,,,0.00,meteohub,2013-01-12 14:56:00,
2013-01-12 10:01:00,59.7,54.5,30.19,SW,225,2.0,3.0,83,0.00,,,0.00,meteohub,2013-01-12 15:01:00,
2013-01-12 10:06:00,59.0,53.8,30.19,North,0,1.0,4.0,83,0.00,,,0.00,meteohub,2013-01-12 15:06:00,
2013-01-12 10:12:00,58.1,53.2,30.19,North,0,2.0,4.0,84,0.00,,,0.00,meteohub,2013-01-12 15:12:00,
2013-01-12 10:17:00,57.6,52.7,30.19,North,0,2.0,4.0,84,0.00,,,0.00,meteohub,2013-01-12 15:17:00,
2013-01-12 10:22:00,56.8,52.3,30.19,NE,45,3.0,3.0,85,0.00,,,0.00,meteohub,2013-01-12 15:22:00,
2013-01-12 10:27:00,56.5,52.0,30.19,SE,135,2.0,4.0,85,0.00,,,0.00,meteohub,2013-01-12 15:27:00,
2013-01-12 10:32:00,56.5,52.3,30.19,South,180,1.0,4.0,86,0.00,,,0.00,meteohub,2013-01-12 15:32:00,
2013-01-12 10:37:00,56.3,52.2,30.19,NW,315,2.0,4.0,86,0.00,,,0.00,meteohub,2013-01-12 15:37:00,
2013-01-12 10:42:00,56.5,52.3,30.19,NE,45,2.0,2.0,86,0.00,,,0.00,meteohub,2013-01-12 15:42:00,
2013-01-12 10:47:00,57.7,53.6,30.19,SE,135,4.0,4.0,86,0.00,,,0.00,meteohub,2013-01-12 15:47:00,
2013-01-12 10:52:00,58.6,54.5,30.19,East,90,3.0,4.0,86,0.00,,,0.00,meteohub,2013-01-12 15:52:00,
2013-01-12 10:57:00,59.2,54.3,30.19,NE,45,3.0,4.0,84,0.00,,,0.00,meteohub,2013-01-12 15:57:00,
2013-01-12 11:02:00,59.4,54.1,30.19,NW,315,2.0,4.0,83,0.00,,,0.00,meteohub,2013-01-12 16:02:00,
2013-01-12 11:07:00,58.8,53.6,30.19,North,0,2.0,4.0,83,0.00,,,0.00,meteohub,2013-01-12 16:07:00,
2013-01-12 11:12:00,58.6,53.8,30.19,East,90,2.0,4.0,84,0.00,,,0.00,meteohub,2013-01-12 16:12:00,
2013-01-12 11:17:00,59.0,53.8,30.18,NE,45,2.0,4.0,83,0.00,,,0.00,meteohub,2013-01-12 16:17:00,
2013-01-12 11:22:00,60.6,55.0,30.17,WNW,293,2.0,4.0,82,0.00,,,0.00,meteohub,2013-01-12 16:22:00,
2013-01-12 11:27:00,61.3,54.9,30.18,North,0,5.0,6.0,79,0.00,,,0.00,meteohub,2013-01-12 16:27:00,
2013-01-12 11:32:00,61.5,54.3,30.18,East,90,2.0,8.0,77,0.00,,,0.00,meteohub,2013-01-12 16:32:00,
2013-01-12 11:37:00,62.4,56.1,30.18,North,0,4.0,8.0,80,0.00,,,0.00,meteohub,2013-01-12 16:37:00,
2013-01-12 11:42:00,62.6,55.9,30.17,North,0,4.0,8.0,79,0.00,,,0.00,meteohub,2013-01-12 16:42:00,
2013-01-12 11:47:00,62.8,56.1,30.17,North,0,4.0,4.0,79,0.00,,,0.00,meteohub,2013-01-12 16:47:00,
2013-01-12 11:52:00,63.1,56.5,30.17,NE,45,4.0,4.0,79,0.00,,,0.00,meteohub,2013-01-12 16:52:00,
2013-01-12 11:57:00,64.4,57.4,30.17,NW,315,4.0,5.0,78,0.00,,,0.00,meteohub,2013-01-12 16:57:00,
2013-01-12 12:02:00,64.9,57.2,30.17,North,0,3.0,5.0,76,0.00,,,0.00,meteohub,2013-01-12 17:02:00,
2013-01-12 12:07:00,64.8,56.7,30.17,North,0,4.0,5.0,75,0.00,,,0.00,meteohub,2013-01-12 17:07:00,
2013-01-12 12:12:00,65.1,56.7,30.16,North,0,4.0,5.0,74,0.00,,,0.00,meteohub,2013-01-12 17:12:00,
2013-01-12 12:17:00,65.5,57.0,30.16,NW,315,2.0,6.0,74,0.00,,,0.00,meteohub,2013-01-12 17:17:00,
2013-01-12 12:22:00,67.1,58.5,30.16,East,90,2.0,6.0,74,0.00,,,0.00,meteohub,2013-01-12 17:22:00,
2013-01-12 12:27:00,68.2,59.2,30.16,NE,45,2.0,6.0,73,0.00,,,0.00,meteohub,2013-01-12 17:27:00,
2013-01-12 12:32:00,69.1,59.4,30.17,ENE,68,5.0,5.0,71,0.00,,,0.00,meteohub,2013-01-12 17:32:00,
2013-01-12 12:37:00,69.6,59.4,30.16,North,0,3.0,5.0,70,0.00,,,0.00,meteohub,2013-01-12 17:37:00,
2013-01-12 12:42:00,69.6,59.0,30.16,NNW,338,4.0,5.0,69,0.00,,,0.00,meteohub,2013-01-12 17:42:00,
2013-01-12 12:47:00,69.1,58.5,30.15,North,0,4.0,5.0,69,0.00,,,0.00,meteohub,2013-01-12 17:47:00,
2013-01-12 12:52:00,69.3,58.6,30.15,North,0,3.0,4.0,69,0.00,,,0.00,meteohub,2013-01-12 17:52:00,
2013-01-12 12:57:00,69.4,58.8,30.15,NE,45,2.0,4.0,69,0.00,,,0.00,meteohub,2013-01-12 17:57:00,
2013-01-12 13:02:00,69.8,58.8,30.15,North,0,4.0,4.0,68,0.00,,,0.00,meteohub,2013-01-12 18:02:00,
2013-01-12 13:07:00,70.2,58.6,30.14,North,0,2.0,4.0,67,0.00,,,0.00,meteohub,2013-01-12 18:07:00,
2013-01-12 13:12:00,70.0,59.0,30.14,North,0,0.0,4.0,68,0.00,,,0.00,meteohub,2013-01-12 18:12:00,
2013-01-12 13:17:00,70.0,59.0,30.15,East,90,1.0,4.0,68,0.00,,,0.00,meteohub,2013-01-12 18:17:00,
2013-01-12 13:22:00,69.6,59.4,30.15,South,180,0.0,2.0,70,0.00,,,0.00,meteohub,2013-01-12 18:22:00,
2013-01-12 13:27:00,69.4,59.5,30.14,South,180,0.0,2.0,71,0.00,,,0.00,meteohub,2013-01-12 18:27:00,
2013-01-12 13:32:00,69.3,59.5,30.14,South,180,1.0,2.0,71,0.00,,,0.00,meteohub,2013-01-12 18:32:00,
2013-01-12 13:37:00,69.3,59.9,30.14,South,180,2.0,2.0,72,0.00,,,0.00,meteohub,2013-01-12 18:37:00,
2013-01-12 13:42:00,69.4,60.1,30.14,SE,135,0.0,2.0,72,0.00,,,0.00,meteohub,2013-01-12 18:42:00,
2013-01-12 13:47:00,70.5,60.6,30.14,SE,135,1.0,2.0,71,0.00,,,0.00,meteohub,2013-01-12 18:47:00,
2013-01-12 13:52:00,71.8,60.3,30.14,NE,45,1.0,2.0,67,0.00,,,0.00,meteohub,2013-01-12 18:52:00,
2013-01-12 13:57:00,72.9,60.8,30.14,NW,315,3.0,3.0,66,0.00,,,0.00,meteohub,2013-01-12 18:57:00,
2013-01-12 14:02:00,73.6,61.2,30.14,North,0,4.0,4.0,65,0.00,,,0.00,meteohub,2013-01-12 19:02:00,
2013-01-12 14:07:00,73.2,59.9,30.14,SE,135,2.0,4.0,63,0.00,,,0.00,meteohub,2013-01-12 19:07:00,
2013-01-12 14:12:00,73.6,60.6,30.14,NE,45,3.0,4.0,64,0.00,,,0.00,meteohub,2013-01-12 19:12:00,
2013-01-12 14:17:00,73.4,60.1,30.13,North,0,4.0,4.0,63,0.00,,,0.00,meteohub,2013-01-12 19:17:00,
2013-01-12 14:22:00,73.6,60.6,30.14,NE,45,4.0,5.0,64,0.00,,,0.00,meteohub,2013-01-12 19:22:00,
2013-01-12 14:27:00,74.3,61.3,30.14,South,180,4.0,5.0,64,0.00,,,0.00,meteohub,2013-01-12 19:27:00,
2013-01-12 14:32:00,74.8,60.4,30.14,SW,225,2.0,5.0,61,0.00,,,0.00,meteohub,2013-01-12 19:32:00,
2013-01-12 14:37:00,75.2,60.4,30.14,North,0,4.0,5.0,60,0.00,,,0.00,meteohub,2013-01-12 19:37:00,
2013-01-12 14:42:00,75.6,60.3,30.14,NE,45,3.0,4.0,59,0.00,,,0.00,meteohub,2013-01-12 19:42:00,
2013-01-12 14:47:00,75.2,60.4,30.14,SE,135,2.0,4.0,60,0.00,,,0.00,meteohub,2013-01-12 19:47:00,
2013-01-12 14:52:00,75.6,60.3,30.14,South,180,2.0,4.0,59,0.00,,,0.00,meteohub,2013-01-12 19:52:00,
2013-01-12 14:57:00,75.6,60.3,30.14,North,0,3.0,4.0,59,0.00,,,0.00,meteohub,2013-01-12 19:57:00,
2013-01-12 15:02:00,75.2,59.9,30.14,North,0,2.0,4.0,59,0.00,,,0.00,meteohub,2013-01-12 20:02:00,
2013-01-12 15:07:00,75.0,60.3,30.14,South,180,3.0,4.0,60,0.00,,,0.00,meteohub,2013-01-12 20:07:00,
2013-01-12 15:12:00,75.0,60.3,30.14,NE,45,2.0,4.0,60,0.00,,,0.00,meteohub,2013-01-12 20:12:00,
2013-01-12 15:17:00,75.2,59.4,30.14,NE,45,1.0,4.0,58,0.00,,,0.00,meteohub,2013-01-12 20:17:00,
2013-01-12 15:22:00,75.2,59.4,30.14,NE,45,1.0,4.0,58,0.00,,,0.00,meteohub,2013-01-12 20:22:00,
2013-01-12 15:27:00,74.7,59.4,30.14,NE,45,2.0,4.0,59,0.00,,,0.00,meteohub,2013-01-12 20:27:00,
2013-01-12 15:32:00,73.9,59.2,30.14,North,0,2.0,3.0,60,0.00,,,0.00,meteohub,2013-01-12 20:32:00,
2013-01-12 15:37:00,72.9,58.6,30.14,NE,45,0.0,2.0,61,0.00,,,0.00,meteohub,2013-01-12 20:37:00,
2013-01-12 15:42:00,72.5,58.8,30.14,NW,315,1.0,2.0,62,0.00,,,0.00,meteohub,2013-01-12 20:42:00,
2013-01-12 15:47:00,71.6,58.3,30.14,South,180,1.0,2.0,63,0.00,,,0.00,meteohub,2013-01-12 20:47:00,
2013-01-12 15:52:00,71.1,58.6,30.14,SE,135,0.0,2.0,65,0.00,,,0.00,meteohub,2013-01-12 20:52:00,
2013-01-12 15:57:00,70.9,58.5,30.14,South,180,2.0,2.0,65,0.00,,,0.00,meteohub,2013-01-12 20:57:00,
2013-01-12 16:02:00,70.7,58.8,30.14,South,180,1.0,2.0,66,0.00,,,0.00,meteohub,2013-01-12 21:02:00,
2013-01-12 16:07:00,70.5,58.6,30.14,South,180,1.0,2.0,66,0.00,,,0.00,meteohub,2013-01-12 21:07:00,
2013-01-12 16:12:00,70.5,58.6,30.15,SE,135,1.0,2.0,66,0.00,,,0.00,meteohub,2013-01-12 21:12:00,
2013-01-12 16:17:00,70.5,59.0,30.14,SW,225,1.0,2.0,67,0.00,,,0.00,meteohub,2013-01-12 21:17:00,
2013-01-12 16:22:00,70.3,58.8,30.14,South,180,1.0,2.0,67,0.00,,,0.00,meteohub,2013-01-12 21:22:00,
2013-01-12 16:27:00,70.0,58.5,30.14,SE,135,0.0,2.0,67,0.00,,,0.00,meteohub,2013-01-12 21:27:00,
2013-01-12 16:32:00,69.8,58.3,30.14,South,180,0.0,2.0,67,0.00,,,0.00,meteohub,2013-01-12 21:32:00,
2013-01-12 16:37:00,69.4,58.8,30.14,North,0,1.0,1.0,69,0.00,,,0.00,meteohub,2013-01-12 21:37:00,
2013-01-12 16:42:00,69.1,58.5,30.14,South,180,0.0,2.0,69,0.00,,,0.00,meteohub,2013-01-12 21:42:00,
2013-01-12 16:47:00,68.5,58.3,30.14,SW,225,1.0,2.0,70,0.00,,,0.00,meteohub,2013-01-12 21:47:00,
2013-01-12 16:52:00,68.2,58.5,30.14,West,270,2.0,2.0,71,0.00,,,0.00,meteohub,2013-01-12 21:52:00,
2013-01-12 16:57:00,67.6,58.3,30.14,SW,225,2.0,2.0,72,0.00,,,0.00,meteohub,2013-01-12 21:57:00,
2013-01-12 17:02:00,66.9,57.9,30.14,South,180,3.0,3.0,73,0.00,,,0.00,meteohub,2013-01-12 22:02:00,
2013-01-12 17:07:00,66.6,58.1,30.14,South,180,2.0,3.0,74,0.00,,,0.00,meteohub,2013-01-12 22:07:00,
2013-01-12 17:12:00,65.7,57.6,30.14,South,180,0.0,3.0,75,0.00,,,0.00,meteohub,2013-01-12 22:12:00,
2013-01-12 17:17:00,65.3,57.6,30.14,South,180,0.0,3.0,76,0.00,,,0.00,meteohub,2013-01-12 22:17:00,
2013-01-12 17:22:00,64.9,57.6,30.14,South,180,0.0,2.0,77,0.00,,,0.00,meteohub,2013-01-12 22:22:00,
2013-01-12 17:27:00,64.8,57.4,30.14,South,180,0.0,1.0,77,0.00,,,0.00,meteohub,2013-01-12 22:27:00,
2013-01-12 17:32:00,64.2,57.2,30.14,South,180,0.0,1.0,78,0.00,,,0.00,meteohub,2013-01-12 22:32:00,
2013-01-12 17:37:00,64.0,57.0,30.14,SSW,203,0.0,0.0,78,0.00,,,0.00,meteohub,2013-01-12 22:37:00,
2013-01-12 17:42:00,63.9,57.2,30.14,South,180,0.0,0.0,79,0.00,,,0.00,meteohub,2013-01-12 22:42:00,
2013-01-12 17:47:00,63.5,56.8,30.14,SW,225,0.0,0.0,79,0.00,,,0.00,meteohub,2013-01-12 22:47:00,
2013-01-12 17:52:00,63.0,56.7,30.14,NE,45,0.0,0.0,80,0.00,,,0.00,meteohub,2013-01-12 22:52:00,
2013-01-12 17:57:00,62.8,56.8,30.13,SW,225,0.0,0.0,81,0.00,,,0.00,meteohub,2013-01-12 22:57:00,
2013-01-12 18:02:00,62.6,56.7,30.14,WSW,248,0.0,0.0,81,0.00,,,0.00,meteohub,2013-01-12 23:02:00,
2013-01-12 18:07:00,62.2,56.7,30.14,SW,225,0.0,1.0,82,0.00,,,0.00,meteohub,2013-01-12 23:07:00,
2013-01-12 18:12:00,62.1,56.8,30.13,SSW,203,0.0,1.0,83,0.00,,,0.00,meteohub,2013-01-12 23:12:00,
2013-01-12 18:17:00,62.1,56.8,30.13,SW,225,0.0,1.0,83,0.00,,,0.00,meteohub,2013-01-12 23:17:00,
2013-01-12 18:22:00,62.1,56.8,30.13,NW,315,0.0,0.0,83,0.00,,,0.00,meteohub,2013-01-12 23:22:00,
2013-01-12 18:27:00,62.2,57.4,30.13,SW,225,0.0,0.0,84,0.00,,,0.00,meteohub,2013-01-12 23:27:00,
2013-01-12 18:32:00,62.4,57.2,30.13,West,270,0.0,0.0,83,0.00,,,0.00,meteohub,2013-01-12 23:32:00,
2013-01-12 18:37:00,62.4,57.2,30.13,SW,225,0.0,0.0,83,0.00,,,0.00,meteohub,2013-01-12 23:37:00,
2013-01-12 18:42:00,62.1,56.8,30.13,West,270,0.0,0.0,83,0.00,,,0.00,meteohub,2013-01-12 23:42:00,
2013-01-12 18:48:00,62.1,57.2,30.13,SW,225,0.0,0.0,84,0.00,,,0.00,meteohub,2013-01-12 23:48:00,
2013-01-12 18:53:00,62.1,57.2,30.13,North,0,0.0,0.0,84,0.00,,,0.00,meteohub,2013-01-12 23:53:00,
2013-01-12 18:58:00,62.8,58.3,30.13,SW,225,0.0,2.0,85,0.00,,,0.00,meteohub,2013-01-12 23:58:00,
2013-01-12 19:03:00,63.0,58.5,30.13,SW,225,0.0,2.0,85,0.00,,,0.00,meteohub,2013-01-13 00:03:00,
2013-01-12 19:08:00,63.3,58.8,30.13,North,0,0.0,2.0,85,0.00,,,0.00,meteohub,2013-01-13 00:08:00,
2013-01-12 19:13:00,63.1,57.9,30.13,SW,225,0.0,0.0,83,0.00,,,0.00,meteohub,2013-01-13 00:13:00,
2013-01-12 19:18:00,62.4,57.6,30.13,SW,225,0.0,0.0,84,0.00,,,0.00,meteohub,2013-01-13 00:18:00,
2013-01-12 19:23:00,61.9,57.4,30.14,West,270,0.0,0.0,85,0.00,,,0.00,meteohub,2013-01-13 00:23:00,
2013-01-12 19:28:00,61.7,57.2,30.14,SW,225,0.0,0.0,85,0.00,,,0.00,meteohub,2013-01-13 00:28:00,
2013-01-12 19:33:00,61.3,56.8,30.14,SW,225,0.0,0.0,85,0.00,,,0.00,meteohub,2013-01-13 00:33:00,
2013-01-12 19:38:00,61.0,56.8,30.13,South,180,0.0,0.0,86,0.00,,,0.00,meteohub,2013-01-13 00:38:00,
2013-01-12 19:43:00,60.8,56.8,30.14,SSW,203,0.0,0.0,87,0.00,,,0.00,meteohub,2013-01-13 00:43:00,
2013-01-12 19:48:00,61.0,57.4,30.14,South,180,0.0,0.0,88,0.00,,,0.00,meteohub,2013-01-13 00:48:00,
2013-01-12 19:53:00,61.3,57.7,30.14,SE,135,0.0,0.0,88,0.00,,,0.00,meteohub,2013-01-13 00:53:00,
2013-01-12 19:58:00,61.5,58.3,30.14,SW,225,0.0,0.0,89,0.00,,,0.00,meteohub,2013-01-13 00:58:00,
2013-01-12 20:03:00,61.5,57.9,30.14,South,180,0.0,0.0,88,0.00,,,0.00,meteohub,2013-01-13 01:03:00,
2013-01-12 20:08:00,61.5,57.9,30.14,South,180,0.0,0.0,88,0.00,,,0.00,meteohub,2013-01-13 01:08:00,
2013-01-12 20:13:00,61.2,57.6,30.14,SSW,203,0.0,0.0,88,0.00,,,0.00,meteohub,2013-01-13 01:13:00,
2013-01-12 20:18:00,61.0,57.4,30.13,South,180,0.0,0.0,88,0.00,,,0.00,meteohub,2013-01-13 01:18:00,
2013-01-12 20:23:00,60.6,57.4,30.14,West,270,0.0,0.0,89,0.00,,,0.00,meteohub,2013-01-13 01:23:00,
2013-01-12 20:28:00,60.3,57.0,30.14,SW,225,0.0,0.0,89,0.00,,,0.00,meteohub,2013-01-13 01:28:00,
2013-01-12 20:33:00,59.7,56.5,30.14,South,180,0.0,0.0,89,0.00,,,0.00,meteohub,2013-01-13 01:33:00,
2013-01-12 20:38:00,59.4,56.1,30.14,SW,225,0.0,0.0,89,0.00,,,0.00,meteohub,2013-01-13 01:38:00,
2013-01-12 20:43:00,59.2,56.5,30.13,South,180,0.0,0.0,91,0.00,,,0.00,meteohub,2013-01-13 01:43:00,
2013-01-12 20:48:00,59.0,56.3,30.13,South,180,0.0,0.0,91,0.00,,,0.00,meteohub,2013-01-13 01:48:00,
2013-01-12 20:53:00,58.6,56.3,30.13,SW,225,0.0,0.0,92,0.00,,,0.00,meteohub,2013-01-13 01:53:00,
2013-01-12 20:58:00,58.5,56.5,30.13,WSW,248,0.0,0.0,93,0.00,,,0.00,meteohub,2013-01-13 01:58:00,
2013-01-12 21:03:00,58.3,56.3,30.13,SE,135,0.0,0.0,93,0.00,,,0.00,meteohub,2013-01-13 02:03:00,
2013-01-12 21:08:00,57.7,55.8,30.14,SW,225,0.0,0.0,93,0.00,,,0.00,meteohub,2013-01-13 02:08:00,
2013-01-12 21:13:00,57.4,55.4,30.13,SW,225,0.0,0.0,93,0.00,,,0.00,meteohub,2013-01-13 02:13:00,
2013-01-12 21:18:00,57.2,55.4,30.13,SW,225,0.0,0.0,94,0.00,,,0.00,meteohub,2013-01-13 02:18:00,
2013-01-12 21:23:00,57.2,55.4,30.13,SW,225,0.0,0.0,94,0.00,,,0.00,meteohub,2013-01-13 02:23:00,
2013-01-12 21:28:00,57.2,55.8,30.13,South,180,0.0,0.0,95,0.00,,,0.00,meteohub,2013-01-13 02:28:00,
2013-01-12 21:33:00,57.0,55.9,30.13,SW,225,0.0,0.0,96,0.00,,,0.00,meteohub,2013-01-13 02:33:00,
2013-01-12 21:38:00,57.2,55.8,30.13,SW,225,0.0,0.0,95,0.00,,,0.00,meteohub,2013-01-13 02:38:00,
2013-01-12 21:43:00,57.0,55.9,30.13,SW,225,0.0,0.0,96,0.00,,,0.00,meteohub,2013-01-13 02:43:00,
2013-01-12 21:48:00,56.8,55.8,30.13,West,270,0.0,0.0,96,0.00,,,0.00,meteohub,2013-01-13 02:48:00,
2013-01-12 21:53:00,56.8,55.9,30.13,NW,315,0.0,0.0,97,0.00,,,0.00,meteohub,2013-01-13 02:53:00,
2013-01-12 21:58:00,56.8,55.9,30.13,South,180,0.0,0.0,97,0.00,,,0.00,meteohub,2013-01-13 02:58:00,
2013-01-12 22:03:00,56.8,55.9,30.13,SW,225,0.0,0.0,97,0.00,,,0.00,meteohub,2013-01-13 03:03:00,
2013-01-12 22:08:00,56.8,55.9,30.13,NW,315,0.0,0.0,97,0.00,,,0.00,meteohub,2013-01-13 03:08:00,
2013-01-12 22:13:00,56.7,55.8,30.13,South,180,0.0,0.0,97,0.00,,,0.00,meteohub,2013-01-13 03:13:00,
2013-01-12 22:18:00,56.5,55.9,30.13,WSW,248,0.0,0.0,98,0.00,,,0.00,meteohub,2013-01-13 03:18:00,
2013-01-12 22:23:00,56.5,55.9,30.13,SE,135,0.0,0.0,98,0.00,,,0.00,meteohub,2013-01-13 03:23:00,
2013-01-12 22:28:00,56.5,55.9,30.13,South,180,0.0,0.0,98,0.00,,,0.00,meteohub,2013-01-13 03:28:00,
2013-01-12 22:33:00,56.5,55.9,30.13,South,180,0.0,0.0,98,0.00,,,0.00,meteohub,2013-01-13 03:33:00,
2013-01-12 22:38:00,56.8,56.3,30.13,NW,315,0.0,0.0,98,0.00,,,0.00,meteohub,2013-01-13 03:38:00,
2013-01-12 22:43:00,56.8,56.5,30.13,SE,135,0.0,0.0,99,0.00,,,0.00,meteohub,2013-01-13 03:43:00,
2013-01-12 22:48:00,57.2,56.7,30.13,SE,135,0.0,0.0,98,0.00,,,0.00,meteohub,2013-01-13 03:48:00,
2013-01-12 22:53:00,57.2,56.7,30.13,SW,225,0.0,0.0,98,0.00,,,0.00,meteohub,2013-01-13 03:53:00,
2013-01-12 22:58:00,57.4,56.8,30.13,West,270,0.0,0.0,98,0.00,,,0.00,meteohub,2013-01-13 03:58:00,
2013-01-12 23:03:00,57.4,56.8,30.13,West,270,0.0,0.0,98,0.00,,,0.00,meteohub,2013-01-13 04:03:00,
2013-01-12 23:08:00,57.4,56.8,30.14,South,180,0.0,0.0,98,0.00,,,0.00,meteohub,2013-01-13 04:08:00,
2013-01-12 23:14:00,57.2,56.7,30.14,South,180,0.0,0.0,98,0.00,,,0.00,meteohub,2013-01-13 04:14:00,
2013-01-12 23:18:00,57.2,56.3,30.13,SW,225,0.0,0.0,97,0.00,,,0.00,meteohub,2013-01-13 04:18:00,
2013-01-12 23:24:00,56.7,56.1,30.14,South,180,0.0,0.0,98,0.00,,,0.00,meteohub,2013-01-13 04:24:00,
2013-01-12 23:29:00,56.5,55.9,30.14,SW,225,0.0,0.0,98,0.00,,,0.00,meteohub,2013-01-13 04:29:00,
2013-01-12 23:34:00,56.1,55.6,30.13,South,180,0.0,0.0,98,0.00,,,0.00,meteohub,2013-01-13 04:34:00,
2013-01-12 23:39:00,55.8,54.9,30.13,South,180,0.0,0.0,97,0.00,,,0.00,meteohub,2013-01-13 04:39:00,
2013-01-12 23:44:00,55.6,54.7,30.13,South,180,0.0,0.0,97,0.00,,,0.00,meteohub,2013-01-13 04:44:00,
2013-01-12 23:49:00,55.4,54.9,30.13,SW,225,0.0,0.0,98,0.00,,,0.00,meteohub,2013-01-13 04:49:00,
2013-01-12 23:54:00,55.2,54.3,30.13,SW,225,0.0,0.0,97,0.00,,,0.00,meteohub,2013-01-13 04:54:00,
2013-01-12 23:59:00,55.2,54.3,30.13,South,180,0.0,0.0,97,0.00,,,0.00,meteohub,2013-01-13 04:59:00,